Location: Chandler
(33.3060°N, 111.8410°W)
Time: 17:22:57
(UTC-07:00)

Amateur Radio Satellites - All Passes

Search period start: 26 June 2016 16:52
Search period end: 27 June 2016 16:52
Location: Chandler, 33.3060°N, 111.8410°W

Satellite Date Start Highest point End Downlink Frequencies (MHz)
Time Altitude Azimuth
ISS 26 Jun 16:56:38 16:59:47 45° 227° (SW) 17:02:54 145.825
KKS-1 26 Jun 16:57:04 17:00:59 31° 288° (WNW) 17:04:54 437.445
SO-50 26 Jun 17:01:16 17:05:09 23° 308° (NW) 17:09:02 436.795
Cubesat XI-IV 26 Jun 17:03:32 17:07:32 22° 67° (ENE) 17:11:32 437.490
HORYU 2 26 Jun 17:16:24 17:20:19 31° 262° (W) 17:24:16 437.375
SRMSAT 26 Jun 17:19:38 17:22:41 14° 166° (SSE) 17:25:44 437.500
Cosmos 2499 26 Jun 17:19:52 17:23:58 15° 78° (ENE) 17:28:09 435.465 / 435.565
AIST 1 26 Jun 17:21:44 17:26:01 60° 278° (W) 17:30:18
GOMX 1 26 Jun 17:28:15 17:31:40 20° 71° (ENE) 17:34:56 467.674
STARS 26 Jun 17:35:39 17:39:10 24° 290° (WNW) 17:42:40 437.465
AO-7 26 Jun 17:36:58 17:38:36 11° 269° (W) 17:40:15 29.400- 29.500
CUTE-I 26 Jun 17:37:19 17:42:24 47° 72° (ENE) 17:47:31 437.470
GONETS M04 26 Jun 17:44:36 17:52:30 40° 88° (E) 18:00:23
CUBESAT XI-V 26 Jun 17:51:55 17:56:33 88° 289° (WNW) 18:01:09 437.345
JUGNU 26 Jun 17:56:24 18:00:52 22° 182° (S) 18:05:19 437.505
LilacSat-2 26 Jun 18:01:31 18:05:16 81° 76° (ENE) 18:09:04 437.200
CUSAT 1 26 Jun 18:10:35 18:13:22 21° 72° (ENE) 18:15:44 437.405
NOAA 15 26 Jun 18:12:47 18:17:57 53° 259° (W) 18:23:07 137.62
DANDE 26 Jun 18:14:30 18:15:52 11° 63° (ENE) 18:17:08 436.750
NOAA 18 26 Jun 18:18:37 18:23:59 60° 259° (WSW) 18:29:24 137.9125
BRITE-PL 26 Jun 18:19:44 18:24:46 46° 260° (W) 18:29:28 437.365/2234.400
STRAND 1 26 Jun 18:22:59 18:23:46 10° 91° (E) 18:24:33 437.568
DOVE 4 26 Jun 18:38:30 18:42:49 52° 76° (ENE) 18:46:58 437.250
Cubesat XI-IV 26 Jun 18:42:19 18:47:17 39° 261° (W) 18:52:18 437.490
RS-15 26 Jun 18:55:19 19:04:07 22° 34° (NE) 19:12:53 29.354- 29.394
GOMX 1 26 Jun 19:05:18 19:09:34 31° 262° (W) 19:13:35 467.674
SRMSAT 26 Jun 19:06:51 19:11:11 21° 176° (S) 19:15:31 437.500
Cosmos 2499 26 Jun 19:07:35 19:15:41 87° 275° (W) 19:24:27 435.465 / 435.565
HO-68 26 Jun 19:15:15 19:22:06 51° 70° (ENE) 19:28:59 435.675
CUTE-I 26 Jun 19:19:11 19:22:38 17° 266° (W) 19:26:05 437.470
AAUSAT CUBESAT 2 26 Jun 19:23:11 19:25:26 14° 68° (ENE) 19:27:40 437.432
GONETS M04 26 Jun 19:41:22 19:49:13 37° 284° (WNW) 19:57:05
CANX-2 26 Jun 19:42:51 19:47:06 81° 77° (ENE) 19:51:25 2200.000
JUGNU 26 Jun 19:45:41 19:49:14 16° 192° (SSW) 19:52:47 437.505
CINEMA 3 26 Jun 19:49:43 19:53:53 85° 254° (WSW) 19:58:02 145.822/145.860
COMPASS 1 26 Jun 19:53:11 19:57:09 42° 74° (ENE) 20:01:08 437.405
DANDE 26 Jun 19:54:54 19:59:22 40° 269° (W) 20:02:46 436.750
STRAND 1 26 Jun 19:58:13 20:03:21 70° 285° (WNW) 20:08:27 437.568
M-CUBED/EXP-1 PRIME 26 Jun 19:59:40 20:02:34 29° 69° (ENE) 20:05:27 437.505
CUBEBUG 2 26 Jun 20:01:22 20:05:04 33° 73° (ENE) 20:08:50 437.445
CUTE 1.7 + AOD 2 26 Jun 20:03:19 20:07:33 65° 260° (W) 20:11:49 437.475
SEEDS 26 Jun 20:11:09 20:15:22 76° 258° (WSW) 20:19:38 437.485
PRISM 26 Jun 20:15:42 20:18:56 22° 97° (E) 20:22:09 437.425
ZACube-1 26 Jun 20:36:39 20:40:29 37° 73° (ENE) 20:44:24 437.345
Oscar 11 26 Jun 20:50:09 20:54:25 62° 76° (ENE) 20:58:43 145.826/435.025
AO-85 26 Jun 20:50:18 20:55:12 36° 112° (ESE) 21:00:04 145.980
UWE-3 26 Jun 20:52:39 20:56:48 84° 260° (W) 21:01:02 435.000/436.395/437.385
FUNcube-1 26 Jun 20:55:05 20:59:10 59° 76° (ENE) 21:03:21 145.935
SRMSAT 26 Jun 20:55:30 20:59:43 20° 186° (S) 21:03:57 437.500
AUBIESAT-1 26 Jun 20:56:13 20:59:25 43° 256° (WSW) 21:02:35 437.475
AAUSAT CUBESAT 2 26 Jun 20:56:39 21:00:32 37° 262° (W) 21:04:27 437.432
HO-68 26 Jun 21:04:22 21:10:00 25° 264° (W) 21:15:41 435.675
Cosmos 2499 26 Jun 21:05:53 21:10:05 15° 295° (WNW) 21:14:27 435.465 / 435.565
RS-15 26 Jun 21:06:54 21:19:18 72° 59° (ENE) 21:31:26 29.354- 29.394
DELFI C3 26 Jun 21:25:08 21:29:08 70° 77° (ENE) 21:33:10 145.870
COMPASS 1 26 Jun 21:31:13 21:32:52 12° 267° (W) 21:34:31 437.405
CUBEBUG 2 26 Jun 21:39:25 21:41:47 15° 266° (W) 21:44:10 437.445
PRISM 26 Jun 21:50:59 21:54:06 21° 290° (WNW) 21:57:12 437.425
TIGRISAT 26 Jun 21:58:39 22:02:15 22° 96° (E) 22:05:51 435.000
UNISAT 6 26 Jun 22:02:50 22:06:44 26° 96° (E) 22:10:39 437.425
HUMSAT D 26 Jun 22:07:00 22:11:08 82° 258° (WSW) 22:15:21 437.325/437.525
YUBILEINY 26 Jun 22:07:35 22:08:41 10° 63° (ENE) 22:09:48 435.215
ZACube-1 26 Jun 22:14:49 22:16:54 14° 267° (W) 22:19:01 437.345
AO-85 26 Jun 22:31:04 22:35:43 28° 306° (NW) 22:40:17 145.980
CUBEBUG 1 26 Jun 22:32:03 22:35:08 19° 69° (ENE) 22:38:12 437.445
VELOX 1 26 Jun 22:34:49 22:37:57 19° 69° (ENE) 22:41:05 145.980
50 SAT 26 Jun 22:37:38 22:40:17 19° 71° (ENE) 22:42:57 437.505
ANTELSAT 26 Jun 22:42:06 22:46:46 75° 101° (E) 22:51:27 437.575/2403.000
SRMSAT 26 Jun 22:45:49 22:48:12 12° 195° (SSW) 22:50:36 437.500
POPSAT HIP 1 26 Jun 22:48:31 22:49:25 11° 93° (E) 22:50:20 437.405
QB50P2 26 Jun 22:58:40 23:01:22 16° 95° (E) 23:04:04 145.880/145.840
POLYITAN 1 26 Jun 23:01:13 23:04:00 17° 95° (E) 23:06:46 437.675
ESTCUBE 1 26 Jun 23:01:39 23:06:09 67° 76° (ENE) 23:10:40 437.505/2401.250
DUCHIFAT 1 26 Jun 23:03:42 23:06:14 15° 94° (E) 23:08:45 145.980
Cosmos 2491 26 Jun 23:09:09 23:14:26 18° 81° (E) 23:19:42 435.465 / 435.565
AISAT 26 Jun 23:14:01 23:18:22 59° 75° (ENE) 23:22:42 437.250
RS-15 26 Jun 23:20:56 23:30:41 29° 257° (WSW) 23:40:20 29.354- 29.394
UKube-1 26 Jun 23:24:57 23:29:03 45° 73° (ENE) 23:33:11 .
SPROUT 26 Jun 23:30:34 23:34:22 33° 72° (ENE) 23:38:11 437.525
TIGRISAT 26 Jun 23:34:50 23:38:52 30° 288° (WNW) 23:42:55 435.000
UNISAT 6 26 Jun 23:39:31 23:43:18 25° 289° (WNW) 23:47:07 437.425
DX 1 26 Jun 23:40:56 23:45:16 88° 250° (WSW) 23:49:39 434.975-435.025
SO-50 26 Jun 23:57:22 23:59:15 12° 46° (NE) 00:01:06 436.795
YUBILEINY 26 Jun 23:58:14 00:07:04 70° 82° (E) 00:15:52 435.215
BUGSAT 1 27 Jun 00:06:31 00:10:21 37° 99° (E) 00:14:12 437.445
CUBEBUG 1 27 Jun 00:07:20 00:11:11 30° 263° (W) 00:15:00 437.445
VELOX 1 27 Jun 00:10:17 00:14:10 30° 262° (W) 00:18:04 145.980
50 SAT 27 Jun 00:10:59 00:13:48 21° 264° (W) 00:16:39 437.505
NANOSAT C BR1 27 Jun 00:16:20 00:20:31 59° 284° (WNW) 00:24:41 145.865
QB50P1 27 Jun 00:18:15 00:22:23 52° 285° (WNW) 00:26:31 145.935-145.965
POPSAT HIP 1 27 Jun 00:21:18 00:25:25 49° 285° (WNW) 00:29:31 437.405
Cosmos 2504 27 Jun 00:23:28 00:31:08 32° 74° (ENE) 00:38:29 435.465 / 435.565
QB50P2 27 Jun 00:33:23 00:37:11 32° 288° (WNW) 00:41:00 145.880/145.840
POLYITAN 1 27 Jun 00:36:01 00:39:49 32° 288° (WNW) 00:43:37 437.675
DUCHIFAT 1 27 Jun 00:38:09 00:41:59 34° 287° (WNW) 00:45:47 145.980
JAS-2 27 Jun 00:52:27 00:57:56 55° 100° (E) 01:03:01 435.910
TISAT 1 27 Jun 00:57:25 01:01:34 89° 69° (ENE) 01:05:44 437.305
ITUPSAT 1 27 Jun 00:57:34 01:00:15 15° 66° (ENE) 01:02:57 437.325
BEESAT 27 Jun 00:57:42 01:00:28 15° 66° (ENE) 01:03:13 436.000
Cosmos 2491 27 Jun 01:01:25 01:10:11 77° 277° (W) 01:18:59 435.465 / 435.565
UKube-1 27 Jun 01:03:37 01:05:17 12° 267° (W) 01:06:56 .
SPROUT 27 Jun 01:07:46 01:10:21 16° 266° (W) 01:12:57 437.525
PCSat 27 Jun 01:09:06 01:13:20 24° 106° (ESE) 01:17:34 145.827
Oscar 19 27 Jun 01:32:39 01:37:37 49° 100° (E) 01:42:33 437.125/150
SO-50 27 Jun 01:35:38 01:40:14 71° 244° (WSW) 01:44:40 436.795
Gurwin Techsat 1B 27 Jun 01:35:42 01:39:42 21° 95° (E) 01:43:39 435.225
BUGSAT 1 27 Jun 01:43:20 01:45:23 14° 292° (WNW) 01:47:26 437.445
BEESAT 2 27 Jun 01:50:28 01:52:23 13° 108° (ESE) 01:54:18 435.950
YUBILEINY 27 Jun 01:57:00 02:02:54 20° 279° (W) 02:08:49 435.215
O/OREOS (USA 219) 27 Jun 01:57:09 02:00:52 25° 102° (ESE) 02:04:34 437.305
SWISSCUBE 27 Jun 02:07:27 02:12:14 81° 256° (WSW) 02:17:04 437.505
Cosmos 2504 27 Jun 02:16:18 02:24:41 49° 271° (W) 02:32:42 435.465 / 435.565
KKS-1 27 Jun 02:17:42 02:18:38 11° 65° (ENE) 02:19:34 437.445
ITUPSAT 1 27 Jun 02:33:02 02:37:38 48° 260° (W) 02:42:17 437.325
BEESAT 27 Jun 02:33:14 02:37:48 46° 260° (W) 02:42:25 436.000
JAS-2 27 Jun 02:39:25 02:42:22 15° 298° (WNW) 02:45:14 435.910
PCSat 27 Jun 02:51:27 02:56:26 38° 301° (WNW) 03:01:29 145.827
BEESAT 3 27 Jun 02:51:38 02:55:26 49° 301° (WNW) 02:59:16 437.485
STARS 27 Jun 02:53:27 02:55:34 13° 67° (ENE) 02:57:40 437.465
Cosmos 2491 27 Jun 03:05:33 03:08:25 12° 295° (WNW) 03:11:17 435.465 / 435.565
Oscar 19 27 Jun 03:13:22 03:16:29 16° 294° (WNW) 03:19:36 437.125/150
Gurwin Techsat 1B 27 Jun 03:14:48 03:19:42 38° 289° (WNW) 03:24:34 435.225
BEESAT 2 27 Jun 03:26:08 03:29:50 38° 302° (WNW) 03:33:34 435.950
MOZHAYETS 4 27 Jun 03:27:45 03:32:18 63° 76° (ENE) 03:36:54
ITAMSAT 1 27 Jun 03:30:16 03:35:31 80° 284° (WNW) 03:40:43 435.822/435.867
AIST 1 27 Jun 03:33:45 03:36:57 20° 77° (ENE) 03:40:08
O/OREOS (USA 219) 27 Jun 03:36:33 03:40:09 23° 296° (WNW) 03:43:45 437.305
AO-7 27 Jun 03:43:02 03:51:05 49° 102° (ESE) 03:59:03 29.400- 29.500
KKS-1 27 Jun 03:50:18 03:54:39 58° 259° (W) 03:59:01 437.445
AIST 2 27 Jun 03:54:57 03:57:32 16° 109° (ESE) 04:00:08 435.215
GONETS M04 27 Jun 04:01:51 04:06:24 15° 67° (ENE) 04:10:55
STARS 27 Jun 04:27:21 04:31:30 44° 260° (W) 04:35:40 437.465
CUBESAT XI-V 27 Jun 04:50:42 04:55:17 55° 75° (ENE) 04:59:53 437.345
Cosmos 2499 27 Jun 05:05:07 05:12:22 28° 72° (ENE) 05:19:13 435.465 / 435.565
HORYU 2 27 Jun 05:10:45 05:15:13 66° 101° (ESE) 05:19:41 437.375
AIST 1 27 Jun 05:11:03 05:14:26 23° 271° (W) 05:17:49
Cubesat XI-IV 27 Jun 05:26:38 05:28:16 11° 92° (E) 05:29:53 437.490
AIST 2 27 Jun 05:31:59 05:35:43 33° 303° (WNW) 05:39:29 435.215
STRAND 1 27 Jun 05:35:08 05:36:22 11° 63° (ENE) 05:37:38 437.568
AO-7 27 Jun 05:36:16 05:43:29 34° 298° (WNW) 05:50:40 29.400- 29.500
PHONESAT 2.4 27 Jun 05:36:29 05:38:33 17° 143° (SE) 05:40:36 2401.200-2431.200
LilacSat-2 27 Jun 05:40:52 05:42:25 12° 93° (E) 05:43:57 437.200
GONETS M04 27 Jun 05:55:32 06:04:18 90° 76° (ENE) 06:13:05
CUTE-I 27 Jun 05:59:02 06:03:31 27° 96° (E) 06:07:59 437.470
BRITE-PL 27 Jun 06:28:36 06:32:45 79° 102° (ESE) 06:36:57 437.365/2234.400
CUBESAT XI-V 27 Jun 06:31:18 06:32:55 12° 268° (W) 06:34:32 437.345
NOAA 15 27 Jun 06:32:00 06:37:16 83° 103° (ESE) 06:42:31 137.62
DOVE 4 27 Jun 06:41:38 06:44:47 19° 96° (E) 06:48:01 437.250
NOAA 18 27 Jun 06:44:44 06:50:18 83° 103° (ESE) 06:55:52 137.9125
Cosmos 2499 27 Jun 06:57:25 07:05:49 54° 270° (W) 07:13:42 435.465 / 435.565
CUSAT 1 27 Jun 07:03:06 07:10:56 61° 95° (E) 07:17:53 437.405
Cubesat XI-IV 27 Jun 07:03:23 07:08:44 70° 285° (WNW) 07:14:05 437.490
PRISM 27 Jun 07:03:55 07:04:24 10° 66° (ENE) 07:04:52 437.425
AO-85 27 Jun 07:06:43 07:11:06 84° 243° (WSW) 07:15:07 145.980
STRAND 1 27 Jun 07:09:43 07:14:50 76° 258° (WSW) 07:20:00 437.568
GOMX 1 27 Jun 07:10:13 07:14:25 80° 284° (WNW) 07:18:50 467.674
DANDE 27 Jun 07:11:07 07:18:28 36° 89° (E) 07:25:41 436.750
PHONESAT 2.4 27 Jun 07:11:53 07:14:55 65° 337° (NNW) 07:17:58 2401.200-2431.200
LilacSat-2 27 Jun 07:13:15 07:16:48 35° 286° (WNW) 07:20:21 437.200
CANX-2 27 Jun 07:33:01 07:36:05 19° 95° (E) 07:39:07 2200.000
CUTE-I 27 Jun 07:38:48 07:43:29 32° 290° (WNW) 07:48:10 437.470
CINEMA 3 27 Jun 07:48:02 07:52:06 31° 98° (E) 07:56:20 145.822/145.860
CUTE 1.7 + AOD 2 27 Jun 07:52:47 07:56:29 28° 97° (E) 08:00:10 437.475
GONETS M04 27 Jun 07:55:52 07:59:48 14° 281° (W) 08:03:47
ISS 27 Jun 07:56:53 07:59:53 35° 131° (SE) 08:02:54 145.825
CUBEBUG 2 27 Jun 07:58:13 07:59:27 11° 92° (E) 08:00:39 437.445
SEEDS 27 Jun 07:59:49 08:03:15 24° 96° (E) 08:06:39 437.485
NOAA 15 27 Jun 08:15:58 08:16:17 10° 298° (WNW) 08:16:35 137.62
DOVE 4 27 Jun 08:18:40 08:22:27 30° 287° (WNW) 08:26:24 437.250
NOAA 18 27 Jun 08:28:35 08:30:11 11° 299° (WNW) 08:31:47 137.9125
ZACube-1 27 Jun 08:31:17 08:32:29 11° 92° (E) 08:33:41 437.345
HO-68 27 Jun 08:34:38 08:41:52 80° 105° (ESE) 08:49:04 435.675
PRISM 27 Jun 08:35:08 08:39:12 53° 260° (W) 08:43:16 437.425
AUBIESAT-1 27 Jun 08:38:47 08:41:09 15° 101° (E) 08:43:35 437.475
Oscar 11 27 Jun 08:42:50 08:45:28 16° 94° (E) 08:48:05 145.826/435.025
AAUSAT CUBESAT 2 27 Jun 08:42:51 08:46:49 42° 99° (E) 08:50:45 437.432
UWE-3 27 Jun 08:46:25 08:50:21 28° 97° (E) 08:54:20 435.000/436.395/437.385
CUSAT 1 27 Jun 08:47:04 08:53:09 24° 286° (WNW) 08:58:43 437.405
FUNcube-1 27 Jun 08:48:05 08:51:04 17° 94° (E) 08:54:02 145.935
PHONESAT 2.4 27 Jun 08:49:21 08:51:52 22° 353° (N) 08:54:23 2401.200-2431.200
DANDE 27 Jun 08:53:10 09:01:05 46° 283° (WNW) 09:08:48 436.750
TIGRISAT 27 Jun 08:55:49 08:56:53 11° 66° (ENE) 08:57:57 435.000
UNISAT 6 27 Jun 08:59:25 09:01:26 13° 67° (ENE) 09:03:29 437.425
CANX-2 27 Jun 09:08:14 09:11:53 28° 288° (WNW) 09:15:32 2200.000
DELFI C3 27 Jun 09:09:00 09:10:34 12° 93° (E) 09:12:07 145.870
M-CUBED/EXP-1 PRIME 27 Jun 09:15:22 09:19:15 54° 105° (ESE) 09:23:26 437.505
COMPASS 1 27 Jun 09:15:23 09:19:29 54° 285° (WNW) 09:23:32 437.405
RS-15 27 Jun 09:23:30 09:25:09 10° 95° (E) 09:26:49 29.354- 29.394
CINEMA 3 27 Jun 09:25:38 09:29:01 21° 290° (WNW) 09:32:31 145.822/145.860
CUTE 1.7 + AOD 2 27 Jun 09:29:04 09:32:06 19° 290° (WNW) 09:35:07 437.475
CUBEBUG 2 27 Jun 09:31:45 09:36:17 58° 285° (WNW) 09:40:54 437.445
ISS 27 Jun 09:34:02 09:36:24 18° 326° (NW) 09:38:46 145.825
SEEDS 27 Jun 09:35:31 09:38:48 22° 289° (WNW) 09:42:03 437.485
ANTELSAT 27 Jun 09:37:06 09:41:01 36° 73° (ENE) 09:45:01 437.575/2403.000
HUMSAT D 27 Jun 09:55:11 09:58:33 22° 96° (E) 10:01:52 437.325/437.525
ZACube-1 27 Jun 10:04:33 10:09:00 55° 285° (WNW) 10:13:29 437.345
AUBIESAT-1 27 Jun 10:11:58 10:15:36 35° 290° (WNW) 10:19:28 437.475
Oscar 11 27 Jun 10:17:42 10:21:40 35° 287° (WNW) 10:25:36 145.826/435.025
AAUSAT CUBESAT 2 27 Jun 10:20:10 10:21:52 12° 293° (WNW) 10:23:36 437.432
UWE-3 27 Jun 10:23:00 10:26:38 23° 289° (WNW) 10:30:17 435.000/436.395/437.385
FUNcube-1 27 Jun 10:23:11 10:27:20 36° 287° (WNW) 10:31:31 145.935
HO-68 27 Jun 10:24:26 10:28:42 17° 300° (WNW) 10:32:59 435.675
PHONESAT 2.4 27 Jun 10:26:29 10:29:03 24° 9° (N) 10:31:38 2401.200-2431.200
TIGRISAT 27 Jun 10:28:53 10:33:02 52° 260° (W) 10:37:17 435.000
UNISAT 6 27 Jun 10:33:40 10:37:43 43° 261° (W) 10:41:51 437.425
DELFI C3 27 Jun 10:41:51 10:45:32 37° 286° (WNW) 10:49:11 145.870
M-CUBED/EXP-1 PRIME 27 Jun 10:52:47 10:53:26 10° 296° (WNW) 10:54:06 437.505
BUGSAT 1 27 Jun 10:53:35 10:55:56 15° 69° (ENE) 10:58:17 437.445
ESTCUBE 1 27 Jun 10:59:17 11:02:31 19° 95° (E) 11:05:44 437.505/2401.250
JAS-2 27 Jun 10:59:58 11:05:16 21° 65° (ENE) 11:10:18 435.910
YUBILEINY 27 Jun 11:02:43 11:06:41 14° 79° (ENE) 11:10:39 435.215
NANOSAT C BR1 27 Jun 11:04:04 11:08:09 56° 75° (ENE) 11:12:14 145.865
QB50P1 27 Jun 11:06:11 11:10:18 63° 76° (ENE) 11:14:28 145.935-145.965
POPSAT HIP 1 27 Jun 11:09:15 11:13:24 68° 76° (ENE) 11:17:34 437.405
AISAT 27 Jun 11:09:40 11:12:16 15° 94° (E) 11:14:52 437.250
BEESAT 3 27 Jun 11:13:03 11:16:16 23° 55° (NE) 11:19:28 437.485
ANTELSAT 27 Jun 11:15:29 11:17:51 14° 267° (W) 11:20:14 437.575/2403.000
Cosmos 2491 27 Jun 11:17:18 11:25:31 44° 78° (ENE) 11:33:41 435.465 / 435.565
UKube-1 27 Jun 11:19:29 11:19:46 10° 93° (E) 11:20:04 .
QB50P2 27 Jun 11:21:10 11:25:21 77° 257° (WSW) 11:29:34 145.880/145.840
POLYITAN 1 27 Jun 11:23:49 11:27:59 75° 259° (W) 11:32:11 437.675
RS-15 27 Jun 11:24:03 11:35:09 69° 113° (ESE) 11:46:54 29.354- 29.394
DUCHIFAT 1 27 Jun 11:25:13 11:29:23 83° 255° (WSW) 11:33:34 145.980
HUMSAT D 27 Jun 11:30:32 11:34:04 25° 289° (WNW) 11:37:34 437.325/437.525
DX 1 27 Jun 11:33:58 11:37:18 21° 96° (E) 11:40:37 434.975-435.025
PCSat 27 Jun 11:42:56 11:48:22 71° 64° (ENE) 11:53:44 145.827
50 SAT 27 Jun 11:43:13 11:46:43 40° 99° (E) 11:50:09 437.505
BEESAT 2 27 Jun 11:47:55 11:51:29 30° 56° (NE) 11:55:02 435.950
CUBEBUG 1 27 Jun 11:59:21 12:03:39 66° 101° (E) 12:07:55 437.445
PHONESAT 2.4 27 Jun 12:02:52 12:05:57 80° 27° (NNE) 12:09:02 2401.200-2431.200
VELOX 1 27 Jun 12:03:49 12:08:12 67° 102° (ESE) 12:12:33 145.980
O/OREOS (USA 219) 27 Jun 12:10:54 12:14:38 25° 64° (ENE) 12:18:21 437.305
BUGSAT 1 27 Jun 12:27:26 12:31:01 31° 262° (W) 12:34:37 437.445
ESTCUBE 1 27 Jun 12:35:23 12:39:19 30° 288° (WNW) 12:43:13 437.505/2401.250
JAS-2 27 Jun 12:41:54 12:49:40 71° 258° (WSW) 12:56:55 435.910
AISAT 27 Jun 12:44:47 12:48:49 36° 287° (WNW) 12:52:50 437.250
Oscar 19 27 Jun 12:45:20 12:50:15 47° 73° (ENE) 12:55:09 437.125/150
TISAT 1 27 Jun 12:46:19 12:49:18 19° 96° (E) 12:52:16 437.305
BEESAT 3 27 Jun 12:50:44 12:53:49 22° 249° (WSW) 12:56:53 437.485
UKube-1 27 Jun 12:51:52 12:56:03 52° 286° (WNW) 13:00:13 .
Gurwin Techsat 1B 27 Jun 12:52:52 12:56:58 23° 68° (ENE) 13:01:05 435.225
YUBILEINY 27 Jun 12:53:26 13:02:08 90° 271° (W) 13:10:56 435.215
SPROUT 27 Jun 12:55:50 13:00:06 68° 283° (WNW) 13:04:21 437.525
Cosmos 2504 27 Jun 12:56:56 13:03:19 27° 83° (E) 13:10:01 435.465 / 435.565
ITAMSAT 1 27 Jun 13:09:31 13:10:25 10° 62° (ENE) 13:11:19 435.822/435.867
DX 1 27 Jun 13:09:50 13:13:24 26° 289° (WNW) 13:16:59 434.975-435.025
Cosmos 2491 27 Jun 13:14:32 13:22:01 34° 274° (W) 13:29:31 435.465 / 435.565
BEESAT 2 27 Jun 13:26:28 13:29:04 17° 250° (WSW) 13:31:38 435.950
PCSat 27 Jun 13:29:17 13:31:03 12° 258° (WSW) 13:32:49 145.827
RS-15 27 Jun 13:38:26 13:48:29 34° 315° (NW) 13:59:03 29.354- 29.394
PHONESAT 2.4 27 Jun 13:40:38 13:42:16 13° 218° (SW) 13:43:52 2401.200-2431.200
O/OREOS (USA 219) 27 Jun 13:50:20 13:53:52 23° 258° (WSW) 13:57:24 437.305
AIST 2 27 Jun 13:56:47 14:00:43 40° 58° (ENE) 14:04:38 435.215
JUGNU 27 Jun 14:06:56 14:09:01 12° 164° (SSE) 14:11:06 437.505
SWISSCUBE 27 Jun 14:12:06 14:16:30 35° 98° (E) 14:20:52 437.505
TISAT 1 27 Jun 14:21:19 14:24:54 28° 288° (WNW) 14:28:29 437.305
Oscar 19 27 Jun 14:26:34 14:29:44 16° 266° (W) 14:32:54 437.125/150
Gurwin Techsat 1B 27 Jun 14:31:49 14:36:40 36° 262° (W) 14:41:32 435.225
BEESAT 27 Jun 14:37:16 14:42:01 62° 101° (ESE) 14:46:44 436.000
AO-7 27 Jun 14:37:23 14:45:11 46° 66° (ENE) 14:53:00 29.400- 29.500
ITUPSAT 1 27 Jun 14:37:29 14:42:15 60° 101° (E) 14:46:58 437.325
ITAMSAT 1 27 Jun 14:43:56 14:49:08 80° 258° (WSW) 14:54:23 435.822/435.867
Cosmos 2504 27 Jun 14:48:23 14:56:04 52° 281° (W) 15:04:22 435.465 / 435.565
YUBILEINY 27 Jun 14:55:35 15:00:04 15° 293° (WNW) 15:04:35 435.215
MOZHAYETS 4 27 Jun 15:27:48 15:31:16 21° 95° (E) 15:34:43
AIST 2 27 Jun 15:36:43 15:38:49 14° 252° (WSW) 15:40:54 435.215
SO-50 27 Jun 15:45:03 15:49:56 82° 298° (WNW) 15:54:51 436.795
KKS-1 27 Jun 15:45:26 15:49:32 35° 99° (E) 15:53:37 437.445
SWISSCUBE 27 Jun 15:50:36 15:54:00 20° 292° (WNW) 15:57:23 437.505
JUGNU 27 Jun 15:53:08 15:57:21 20° 173° (S) 16:01:36 437.505
AIST 1 27 Jun 15:59:33 16:02:03 15° 87° (E) 16:04:32
RS-15 27 Jun 16:02:19 16:06:35 12° 349° (NNW) 16:10:55 29.354- 29.394
ISS 27 Jun 16:03:49 16:07:05 74° 44° (NE) 16:10:20 145.825
HORYU 2 27 Jun 16:04:47 16:08:47 35° 72° (ENE) 16:12:49 437.375
BEESAT 27 Jun 16:17:32 16:19:13 12° 295° (WNW) 16:20:53 436.000
ITUPSAT 1 27 Jun 16:17:41 16:19:30 12° 295° (WNW) 16:21:19 437.325
STARS 27 Jun 16:20:37 16:24:49 43° 99° (E) 16:29:01 437.465
AO-7 27 Jun 16:30:39 16:37:58 34° 261° (W) 16:45:21 29.400- 29.500
NOAA 18 27 Jun 16:30:40 16:32:29 12° 62° (ENE) 16:34:17 137.9125
Cubesat XI-IV 27 Jun 16:44:23 16:46:59 14° 64° (ENE) 16:49:36 437.490
